Dewpoint
75 73 73 73 70 68 68 67 67 67 68 69 67 66 67 64 63 66 65 67 67 62
76 75 74 74 72 69 70 66 67 67 68 67 64 65 67 61 64 65 66 65 66 64
74 75 75 74 71 69 68 67 67 67 66 65 64 64 67 63 64 65 62 62 66 66
74 74 74 72 71 68 68 67 67 67 65 65 65 65 66 66 64 64 65 66 66 66
73 71 70 71 67 67 67 67 67 66 66 65 65 65 66 65 61 63 64 64 65 64
71 70 71 65 66 65 66 66 65 65 66 65 65 66 66 65 63 64 64 64 64 64
70 69 67 67 65 66 65 65 65 66 67 66 66 65 64 63 64 65 64 65 65 65
70 69 68 66 65 64 65 65 64 64 66 66 64 60 63 64 64 65 65 65 66 65
69 68 67 68 65 64 64 64 65 65 65 65 62 60 61 63 64 65 66 65 65 65
69 67 68 67 67 65 63 64 64 65 64 66 65 60 60 62 63 64 65 66 65 63
68 68 68 68 67 66 64 64 65 65 66 65 65 59 58 61 65 65 65 65 65 63
68 68 67 67 67 67 65 65 66 64 65 65 65 58 58 61 64 64 63 65 64 62
68 67 66 67 67 66 66 65 64 65 66 63 66 57 57 61 62 63 63 63 62 56
69 68 68 68 67 66 66 65 66 66 66 65 65 64 54 55 63 63 61 59 58 58
Lifted_Index
-7 -7 -7 -7 -6 -5 -4 -3 -2 -1 -1 -1 0 1 1 1 1 1 0 0 0 0
-7 -8 -8 -7 -7 -6 -4 -3 -2 -2 -1 -0 1 1 1 1 1 1 1 0 0 0
-8 -8 -8 -7 -7 -6 -4 -2 -2 -2 -1 -0 0 1 1 1 1 1 1 0 -0 -0
-8 -8 -8 -7 -7 -5 -3 -2 -2 -2 -2 -1 -1 -0 -0 0 1 1 1 0 -0 -0
-8 -7 -7 -7 -6 -4 -2 -1 -2 -2 -2 -2 -2 -2 -1 -0 1 1 1 0 0 -0
-7 -7 -7 -7 -5 -2 -1 -1 -1 -2 -2 -2 -2 -2 -2 -1 0 0 0 0 0 0
-7 -7 -7 -6 -3 -0 1 0 -0 -1 -2 -2 -2 -2 -2 -1 -1 -1 -1 -0 -0 -0
-6 -6 -6 -6 -4 -1 1 1 1 -0 -1 -1 -1 -1 -1 -1 -2 -2 -2 -1 -1 -1
-6 -6 -6 -6 -4 -2 -0 1 1 0 -1 -1 -1 -1 -0 -1 -2 -3 -2 -2 -2 -1
-5 -5 -5 -5 -4 -3 -2 -0 0 -0 -1 -2 -1 -1 -0 -1 -2 -3 -3 -2 -2 -1
-5 -5 -5 -5 -4 -3 -2 -1 -1 -1 -2 -2 -2 -1 -1 -1 -2 -2 -2 -2 -1 -1
-5 -5 -5 -5 -4 -3 -2 -1 -1 -2 -2 -2 -2 -1 -0 -0 -1 -1 -1 -1 -1 -0
-5 -5 -5 -4 -4 -3 -1 -1 -1 -2 -2 -2 -1 -1 0 1 0 -0 -1 -1 0 1
-5 -5 -5 -4 -4 -2 -1 -1 -2 -2 -2 -2 -1 -1 -0 1 1 0 -0 -0 1 1